TimeEST,TemperatureF,Dew PointF,Humidity,Sea Level PressureIn,VisibilityMPH,Wind Direction,Wind SpeedMPH,Gust SpeedMPH,PrecipitationIn,Events,Conditions,WindDirDegrees,DateUTC
12:56 AM,39.0,34.0,82,30.26,10.0,Calm,Calm,-,N/A,,Clear,0,2013-02-19 05:56:00
1:56 AM,39.0,34.0,82,30.23,10.0,Calm,Calm,-,N/A,,Clear,0,2013-02-19 06:56:00
2:56 AM,42.1,37.0,82,30.20,10.0,Calm,Calm,-,N/A,,Clear,0,2013-02-19 07:56:00
3:56 AM,46.9,43.0,86,30.17,10.0,South,4.6,-,N/A,,Clear,170,2013-02-19 08:56:00
4:56 AM,42.1,37.9,85,30.16,10.0,Calm,Calm,-,N/A,,Clear,0,2013-02-19 09:56:00
5:56 AM,46.0,42.1,86,30.14,10.0,South,3.5,-,N/A,,Clear,170,2013-02-19 10:56:00
6:56 AM,53.1,46.9,80,30.13,10.0,SSW,6.9,-,N/A,,Partly Cloudy,200,2013-02-19 11:56:00
7:56 AM,57.0,48.0,72,30.15,10.0,SW,10.4,-,N/A,,Mostly Cloudy,220,2013-02-19 12:56:00
8:56 AM,60.1,48.0,64,30.15,10.0,SW,9.2,-,N/A,,Mostly Cloudy,220,2013-02-19 13:56:00
9:56 AM,63.0,46.0,54,30.13,10.0,SSW,11.5,23.0,N/A,,Mostly Cloudy,210,2013-02-19 14:56:00
10:56 AM,64.0,46.0,52,30.12,10.0,SW,13.8,26.5,N/A,,Overcast,220,2013-02-19 15:56:00
11:56 AM,63.0,48.9,60,30.09,10.0,SSW,10.4,19.6,0.00,Rain,Light Rain,210,2013-02-19 16:56:00
12:56 PM,59.0,53.1,81,30.06,6.0,SSW,8.1,19.6,0.02,Rain,Light Rain,200,2013-02-19 17:56:00
1:56 PM,59.0,55.0,87,30.03,5.0,SSW,8.1,-,0.04,,Overcast,210,2013-02-19 18:56:00
2:43 PM,57.2,55.4,94,30.01,2.0,SSW,4.6,-,0.04,Rain,Rain,200,2013-02-19 19:43:00
2:56 PM,57.9,55.0,90,30.01,3.0,SW,4.6,-,0.04,Rain,Light Rain,230,2013-02-19 19:56:00
3:56 PM,59.0,55.9,90,30.01,4.0,WNW,5.8,-,0.01,,Overcast,300,2013-02-19 20:56:00
4:56 PM,57.0,54.0,89,30.02,8.0,West,5.8,-,N/A,,Overcast,280,2013-02-19 21:56:00
5:14 PM,57.2,53.6,88,30.02,9.0,West,6.9,-,N/A,,Overcast,270,2013-02-19 22:14:00
5:49 PM,57.2,53.6,88,30.02,10.0,West,8.1,-,N/A,,Overcast,260,2013-02-19 22:49:00
5:56 PM,57.0,54.0,89,30.03,10.0,West,6.9,-,N/A,,Overcast,260,2013-02-19 22:56:00
7:56 PM,54.0,52.0,93,30.05,10.0,WNW,3.5,-,N/A,,Partly Cloudy,290,2013-02-20 00:56:00
8:56 PM,51.1,48.9,92,30.06,6.0,WSW,4.6,-,N/A,,Clear,250,2013-02-20 01:56:00
9:32 PM,48.2,46.4,93,30.07,1.8,WSW,4.6,-,N/A,,Clear,240,2013-02-20 02:32:00
9:35 PM,48.2,46.4,93,30.07,1.0,WSW,4.6,-,N/A,,Clear,240,2013-02-20 02:35:00
9:41 PM,48.2,46.4,93,30.07,0.5,WSW,4.6,-,N/A,Fog,Fog,250,2013-02-20 02:41:00
9:48 PM,46.4,46.4,100,30.07,0.2,WSW,4.6,-,N/A,Fog,Fog,250,2013-02-20 02:48:00
9:56 PM,46.0,45.0,96,30.07,0.2,WSW,5.8,-,N/A,Fog,Fog,250,2013-02-20 02:56:00
10:15 PM,48.2,46.4,93,30.07,1.2,WSW,6.9,-,N/A,,Scattered Clouds,250,2013-02-20 03:15:00
10:17 PM,48.2,46.4,93,30.07,2.0,WSW,6.9,-,N/A,,Scattered Clouds,240,2013-02-20 03:17:00
10:25 PM,48.2,46.4,93,30.07,4.0,WSW,5.8,-,N/A,,Partly Cloudy,240,2013-02-20 03:25:00
10:38 PM,48.2,46.4,93,30.07,2.0,WSW,6.9,-,N/A,,Clear,240,2013-02-20 03:38:00
10:48 PM,48.2,46.4,93,30.07,4.0,WSW,6.9,-,N/A,,Clear,240,2013-02-20 03:48:00
10:59 PM,46.4,46.4,100,30.07,1.8,WSW,5.8,-,N/A,,Clear,250,2013-02-20 03:59:00
11:04 PM,46.4,44.6,93,30.07,0.5,West,5.8,-,N/A,Fog,Fog,260,2013-02-20 04:04:00
11:11 PM,46.4,46.4,100,30.07,0.5,West,5.8,-,N/A,Fog,Fog,260,2013-02-20 04:11:00
11:19 PM,48.2,46.4,93,30.07,1.8,West,5.8,-,N/A,,Partly Cloudy,270,2013-02-20 04:19:00
11:26 PM,48.2,46.4,93,30.07,3.0,West,8.1,-,N/A,,Partly Cloudy,280,2013-02-20 04:26:00
11:56 PM,50.0,46.9,89,30.08,10.0,NW,9.2,-,0.01,,Clear,310,2013-02-20 04:56:00